Погода в Укунде

Кения     4°17′36″S   39°33′56″E
темп.,
°C
ветер,
м/с
пор.,
м/с
влажн.,
%
обл.,
%
осадки,
мм/ч
давл.,
гПа
погр.,
м
11 мая, вт
вт1100:00+25ю61176100 0.0 1014612
03:00+24ю51076100 0.0 1013566
06:00+23ююз498555 0.1 1014316
09:00+27ююз797036 0.1 10161094
12:00+29ю8105669 0.3 10151512
15:00+28ю8105833 0.8 10131471
18:00+25ю61077100 0.3 1013742
21:00+24ю6117487 0.3 1015671
12 мая, ср
ср1200:00+24ю5107457 0.0 1015408
03:00+22ююз4108311 0.0 1014307
06:00+22юз4108497 0.0 1015310
09:00+27ююз7105739 0.0 10171148
12:00+30ю8104772 0.0 10151530
15:00+29ю91152100 0.0 10121446
18:00+26ю6106946 0.0 1012985
21:00+25ю6107320 0.0 1015627
13 мая, чт
чт1300:00+24ю61074100 0.0 1015589
03:00+24ю5974100 0.0 1014621
06:00+22юз41090100 0.0 1015308
09:00+27ююз7966100 0.0 10171027
12:00+30ю895135 0.0 10151425
15:00+28ю7958100 0.0 10131165
18:00+25ю610774 0.0 1013746
21:00+24ю6108098 0.0 1015591
14 мая, пт
пт1400:00+25ю611765 0.0 1014777
03:00+24ююз5117998 0.0 1013602
06:00+22юз41091100 0.1 1014386
09:00+27ююз796423 0.1 1016985
12:00+29ю91054100 0.0 10151204
15:00+27ю81065100 0.0 1012997
18:00+25ю61174100 0.0 1013699
21:00+25ююз51177100 0.0 1014628
15 мая, сб
сб1500:00+25ююз61177100 0.0 1014696
03:00+23ююз5118499 0.0 1013468
06:00+23юз41085100 0.0 1014434
09:00+25ююз6106995 0.0 1016694
12:00+30ю9105099 0.0 10141281
15:00+30ю9105261 0.0 10111222
18:00+26ю6117499 0.0 1012752
21:00+25ю6118465 0.0 1013636